Regional Weather Roundup
Issued by NWS

Home | Current Version | Previous Version | Graphics & Text | Print | Product List | Glossary On
Versions: 1 2 3 4 5 6 7 8 9 10 11 12 13 14 15 16 17 18 19 20 21 22 23 24 25 26 27 28 29 30 31 32 33 34 35 36 37 38 39 40 41 42 43 44 45 46 47 48 49 50
000
ASUS44 KMEG 212100
RWRTN
TENNESSEE HOURLY STATE WEATHER ROUNDUP
NATIONAL WEATHER SERVICE MEMPHIS TN
300 PM CST TUE NOV 21 2017

TNZ002-004-019-021-049-052-054-088>092-212200-
WEST TENNESSEE

CITY           SKY/WX    TMP DP  RH WIND       PRES   REMARKS
MEMPHIS INTL   CLOUDY    60  37  42 VRB3      30.01F
NWS MEMPHIS      N/A     61 N/A N/A MISG        N/A
JACKSON        MOSUNNY   59  36  42 SW6       30.00F
DYERSBURG      MOSUNNY   58  37  45 VRB5      30.00F
$$

TNZ008-025-027-028-033-062-065-066-212200-
NORTH MIDDLE TENNESSEE

CITY           SKY/WX    TMP DP  RH WIND       PRES   REMARKS
NASHVILLE      PTSUNNY   60  28  29 SW7       30.00F
CLARKSVILLE    MOSUNNY   56  30  37 SW12      30.00R
SMYRNA         SUNNY     60  29  30 SW7       30.01F
CROSSVILLE     MOSUNNY   59  47  64 S9        29.99F
$$

TNZ061-075-076-078-094-096-097-212200-
SOUTH MIDDLE TENNESSEE

CITY           SKY/WX    TMP DP  RH WIND       PRES   REMARKS
WINCHESTER     SUNNY     63  43  48 W5        29.99S
$$

TNZ017-018-042-046-047-212200-
NORTHEAST TENNESSEE

CITY           SKY/WX    TMP DP  RH WIND       PRES   REMARKS
TRI CITIES     MOSUNNY   63  44  50 S5        30.01F
$$

TNZ012-013-036-069-073-074-212200-
CENTRAL EAST TENNESSEE

CITY           SKY/WX    TMP DP  RH WIND       PRES   REMARKS
KNOXVILLE      PTSUNNY   59  49  69 W8        30.00F
OAK RIDGE      MOSUNNY   59  48  67 VRB5      30.02F
$$

TNZ083-085-099-212200-
SOUTHEAST TENNESSEE

CITY           SKY/WX    TMP DP  RH WIND       PRES   REMARKS
CHATTANOOGA    PTSUNNY   60  50  69 SW7       30.02F
$$

SKY/WX REPORTED AS FAIR MEANS FEW OR NO CLOUDS BELOW
12 THOUSAND FEET.





USA.gov is the U.S. government's official web portal to all federal, state and local government web resources and services.